Wind_Speed
20 20 20 19 19 18 17 16 15 14 13 12 11 10 9 9 8 8 7 7 6 5 5 5 5 5 5 5 5 5 5 5 5 5 5 5 5 5 5 5 5 5 6
22 21 21 21 21 20 20 19 18 17 16 14 13 12 11 11 10 9 9 9 8 8 7 7 7 7 7 7 7 7 6 6 6 6 6 6 6 6 6 6 6 6 6
23 23 22 22 22 22 22 21 20 19 18 17 16 15 14 13 12 12 11 11 10 10 10 9 9 9 8 8 9 9 8 8 8 8 7 7 7 7 7 7 7 7 7
26 25 25 24 24 23 23 22 22 22 21 20 19 18 17 16 15 14 13 12 12 12 12 11 10 10 10 10 10 10 10 10 10 9 9 9 9 9 9 9 9 9 9
28 27 27 27 26 25 25 24 24 23 23 22 21 21 20 19 17 16 16 15 14 14 13 13 13 12 12 12 12 12 12 12 11 11 11 11 11 10 10 10 10 10 10
29 30 29 29 28 28 28 27 26 25 25 24 23 23 22 21 20 19 18 18 17 16 15 15 15 14 14 14 14 13 13 13 13 13 13 13 12 12 12 12 12 12 12
31 31 31 31 31 30 30 30 29 28 27 26 26 25 25 24 23 22 21 20 19 19 18 17 17 17 16 15 15 15 15 14 14 14 14 14 14 14 14 13 13 13 13
33 33 33 33 33 33 32 31 31 31 30 29 28 27 27 26 26 25 24 23 22 21 20 19 19 19 18 17 17 16 16 16 16 16 16 16 16 16 15 15 15 14 14
35 35 35 36 36 35 35 34 33 33 33 32 31 30 29 28 27 27 26 25 24 23 22 21 21 20 20 19 19 18 18 17 18 18 18 17 17 17 17 16 16 16 16
35 36 37 37 37 37 36 36 35 35 34 34 34 33 32 30 29 29 28 27 26 25 25 24 23 22 22 21 21 20 20 19 19 19 19 19 19 18 18 18 17 17 17
36 36 37 37 38 38 38 37 37 36 36 35 35 34 33 32 31 30 29 29 28 27 27 26 25 24 24 23 22 22 22 21 21 21 21 21 21 20 20 19 19 18 18
35 35 37 37 38 39 39 38 38 37 37 36 35 35 34 34 33 32 30 30 30 29 29 28 27 26 25 25 24 24 24 23 23 23 22 22 22 22 21 21 21 20 20
35 35 36 37 38 39 39 39 39 38 38 37 37 36 36 35 34 33 32 32 31 31 31 30 29 28 27 26 26 25 25 25 25 25 25 24 24 24 23 23 23 23 23
36 36 36 37 38 38 39 39 40 40 40 39 38 38 38 37 36 35 34 34 33 33 32 31 30 30 29 28 27 27 27 27 27 27 26 26 26 25 25 25 25 24 24
36 36 37 37 38 39 39 39 40 40 41 40 40 40 40 40 39 38 37 36 35 35 35 34 33 32 31 31 30 29 29 28 28 29 28 28 28 27 27 26 26 26 26
36 37 37 37 38 40 40 41 41 42 42 42 43 43 43 43 42 40 39 38 37 36 37 38 36 34 34 33 33 32 31 30 30 30 30 29 29 29 28 28 28 28 27
35 36 37 38 39 40 41 42 43 43 43 44 44 44 45 45 44 42 41 40 40 39 39 39 38 37 37 36 35 34 34 33 32 31 31 30 30 30 30 30 30 30 29
34 34 36 38 39 39 41 42 44 45 45 45 45 45 45 46 46 45 44 43 43 42 41 41 40 39 38 38 37 37 36 35 34 34 33 33 32 32 32 32 32 32 31
34 35 35 36 38 39 40 42 44 44 46 46 46 46 47 47 48 48 47 45 45 44 44 43 41 41 40 39 38 38 38 38 37 36 36 35 35 34 34 34 34 34 34
34 34 35 36 37 38 40 41 42 44 45 46 47 47 47 48 49 49 48 47 47 46 45 44 44 42 41 41 40 40 40 40 40 39 39 38 37 36 36 36 36 35 35
34 35 36 36 36 37 39 40 41 42 44 45 45 46 47 48 49 50 50 49 48 48 47 46 45 44 43 42 42 42 42 42 42 41 41 40 40 40 38 38 38 37 37
33 34 35 36 36 36 38 40 41 42 43 44 44 45 46 47 49 51 51 50 49 49 48 48 47 47 45 44 44 44 44 44 43 42 42 42 42 41 41 40 39 39 39
32 33 33 34 35 36 37 38 40 41 41 42 44 44 44 45 47 49 51 51 50 50 51 50 50 50 49 47 46 46 47 46 45 45 44 43 43 43 42 41 41 40 40
30 31 32 33 34 34 34 35 37 39 41 42 42 43 44 45 46 47 49 50 51 50 50 51 50 51 51 49 49 48 48 47 47 45 45 44 43 43 43 43 42 43 42
28 29 30 31 31 31 33 33 34 36 38 40 41 43 44 45 46 47 49 49 50 51 50 51 50 51 51 51 50 49 49 49 48 48 46 45 45 45 45 45 45 45 44
27 28 28 29 29 30 31 32 32 33 35 37 39 40 41 41 42 44 47 48 49 50 51 51 50 50 50 50 50 49 49 49 48 48 47 46 47 46 46 47 46 46 45
Wind_Direction
251 250 251 251 252 250 249 249 250 250 251 251 251 251 253 255 257 257 259 258 260 266 270 269 270 272 273 273 272 274 280 290 295 295 297 295 297 302 308 316 326 334 338
251 250 250 250 251 251 250 250 250 251 252 252 252 253 252 252 254 255 259 259 258 259 263 265 267 269 271 269 267 269 273 280 286 290 294 294 295 297 300 306 312 317 322
251 251 250 250 250 251 252 252 252 251 251 251 251 252 252 251 252 254 256 259 259 258 258 261 264 266 267 267 266 267 269 273 277 281 287 290 291 293 296 300 304 306 311
250 251 251 251 251 251 252 252 252 253 252 252 251 251 251 252 251 252 254 258 260 260 258 258 261 263 265 264 264 265 267 269 272 276 280 284 287 289 292 296 300 301 303
251 251 251 252 252 252 252 252 252 253 253 253 252 251 251 251 252 252 253 255 258 260 259 258 259 261 262 262 262 264 265 266 269 273 276 278 281 286 289 292 294 296 298
252 251 251 251 252 252 252 252 252 253 254 254 253 252 251 251 252 252 253 254 256 258 259 259 258 259 262 262 262 263 264 266 267 270 272 274 277 280 284 288 290 291 293
253 253 252 252 252 252 252 252 252 252 253 254 254 254 253 252 253 253 253 254 255 255 257 258 258 259 260 262 262 262 263 265 267 268 269 271 274 277 280 284 287 289 289
253 253 253 252 252 252 252 252 251 251 252 253 253 254 254 253 253 254 254 254 255 256 256 257 258 259 260 261 262 262 262 262 265 267 269 271 272 274 277 280 283 286 287
254 253 253 253 253 253 253 253 252 252 252 252 252 253 254 253 252 253 254 254 255 255 255 256 258 259 260 260 261 262 262 262 264 266 268 270 271 273 275 278 280 282 285
255 255 254 254 254 253 253 253 253 253 252 252 253 253 253 253 252 252 252 253 254 254 254 255 256 258 260 261 261 262 263 263 264 265 266 268 270 272 274 276 277 279 282
257 257 256 255 254 254 253 253 252 253 252 252 252 252 252 252 251 251 251 252 253 254 254 254 254 256 259 261 261 262 263 264 264 265 265 266 268 270 272 274 276 277 279
258 258 257 256 256 255 254 252 252 252 252 251 250 251 251 251 250 250 251 251 251 252 253 254 254 254 257 259 261 261 262 264 265 264 265 266 266 268 270 271 274 275 277
259 259 258 257 256 256 255 253 252 251 251 251 250 250 250 250 249 249 250 251 251 251 252 253 253 254 255 258 260 261 262 263 265 265 265 266 266 267 269 270 272 273 275
260 260 260 258 257 257 256 254 253 252 251 250 251 250 250 250 249 249 250 250 251 251 252 253 253 253 254 255 258 261 262 263 264 265 266 266 266 267 268 269 271 272 273
260 260 260 261 258 257 256 256 254 252 252 252 251 251 251 251 250 250 250 251 252 251 252 253 253 253 254 255 257 260 262 263 265 265 265 266 266 267 268 269 270 272 273
262 262 262 261 259 257 256 255 254 253 252 252 252 252 252 251 251 250 250 251 252 253 254 253 253 253 253 255 257 259 260 262 264 264 264 265 266 266 267 268 269 271 273
262 262 262 262 260 258 256 255 254 255 254 253 253 252 252 252 251 250 250 250 251 252 254 254 252 253 254 255 256 258 258 260 263 263 264 265 265 265 267 268 269 270 273
262 263 264 263 261 259 257 256 256 255 255 254 254 252 252 252 249 249 250 251 251 251 253 255 255 254 254 255 256 257 258 258 260 262 263 264 264 265 266 267 268 269 271
263 263 264 265 262 259 258 257 256 256 255 254 254 253 252 252 249 249 249 250 250 251 252 253 256 256 255 255 256 256 257 258 259 260 262 263 264 265 266 267 268 268 270
265 264 265 266 264 261 260 259 258 258 256 255 254 253 252 251 249 248 248 249 249 249 251 253 254 255 254 253 254 255 256 258 259 260 261 262 263 264 266 267 268 269 270
267 267 267 267 266 264 262 261 260 258 257 256 254 253 252 251 249 247 247 248 247 248 250 251 252 254 254 254 255 255 256 258 259 260 261 262 263 264 266 267 268 269 270
268 269 268 268 267 267 266 264 262 259 257 254 253 253 252 252 249 247 245 246 246 247 248 249 251 253 254 254 256 257 257 258 259 260 261 261 262 263 264 266 267 269 270
271 270 270 270 269 269 268 266 263 259 257 255 254 254 254 253 251 249 247 245 245 246 247 248 250 252 252 254 257 258 259 258 259 260 261 262 262 262 263 264 266 268 270
273 272 272 272 273 272 270 268 265 262 258 256 255 254 254 254 252 250 247 246 246 246 247 247 249 252 252 253 255 257 258 259 258 258 259 260 260 261 262 264 267 269 270
276 276 275 274 275 274 272 269 267 264 261 258 256 254 255 254 253 251 249 248 247 247 248 249 250 253 254 254 255 256 258 258 258 259 257 258 260 261 261 263 265 267 269
277 278 278 276 276 276 274 272 269 265 262 259 257 256 256 255 254 252 250 248 247 247 248 249 251 253 254 255 255 256 256 257 258 259 258 259 260 260 261 262 264 266 267
Height
5851 5852 5854 5855 5856 5857 5858 5860 5861 5862 5863 5864 5865 5866 5867 5868 5869 5870 5871 5872 5873 5874 5875 5875 5876 5876 5877 5877 5878 5878 5878 5878 5879 5879 5879 5879 5878 5878 5878 5878 5877 5877 5876
5847 5849 5850 5851 5853 5854 5855 5856 5858 5859 5860 5862 5863 5864 5865 5866 5867 5868 5869 5870 5871 5872 5873 5874 5874 5875 5875 5876 5876 5877 5877 5877 5878 5878 5878 5878 5878 5878 5877 5877 5877 5876 5876
5843 5845 5846 5848 5849 5850 5852 5853 5854 5856 5857 5859 5860 5861 5862 5864 5865 5866 5867 5868 5869 5870 5871 5872 5873 5873 5874 5874 5875 5875 5876 5876 5876 5877 5877 5877 5877 5877 5876 5876 5876 5875 5875
5839 5840 5842 5843 5845 5846 5847 5849 5850 5852 5853 5855 5856 5858 5859 5861 5862 5863 5864 5866 5867 5868 5869 5870 5871 5871 5872 5872 5873 5873 5874 5874 5875 5875 5875 5875 5876 5875 5875 5875 5875 5874 5874
5834 5835 5837 5838 5840 5841 5843 5844 5846 5847 5849 5850 5852 5854 5855 5857 5858 5860 5861 5863 5864 5865 5866 5867 5868 5869 5869 5870 5870 5871 5872 5872 5873 5873 5873 5874 5874 5874 5874 5873 5873 5873 5872
5828 5830 5831 5833 5835 5836 5838 5839 5841 5843 5844 5846 5848 5849 5851 5853 5854 5856 5857 5859 5860 5862 5863 5864 5865 5866 5867 5867 5868 5868 5869 5870 5870 5871 5871 5872 5872 5872 5872 5872 5871 5871 5871
5822 5824 5826 5827 5829 5831 5832 5834 5836 5838 5839 5841 5843 5845 5847 5848 5850 5852 5853 5855 5856 5858 5859 5861 5862 5863 5863 5864 5865 5866 5866 5867 5867 5868 5869 5869 5869 5869 5870 5869 5869 5869 5869
5816 5818 5819 5821 5823 5825 5826 5828 5830 5832 5834 5835 5838 5839 5841 5843 5845 5847 5849 5851 5852 5854 5855 5857 5858 5859 5860 5861 5862 5862 5863 5864 5864 5865 5865 5866 5866 5867 5867 5867 5867 5867 5866
5809 5811 5812 5814 5816 5818 5820 5822 5824 5826 5827 5830 5832 5834 5836 5838 5840 5842 5844 5846 5848 5849 5851 5852 5854 5855 5856 5857 5858 5859 5860 5860 5861 5861 5862 5863 5863 5863 5864 5864 5864 5864 5864
5801 5803 5805 5807 5809 5811 5813 5815 5817 5819 5821 5823 5825 5827 5830 5832 5834 5836 5838 5840 5842 5844 5846 5848 5849 5850 5852 5853 5854 5855 5856 5857 5857 5858 5858 5859 5859 5860 5860 5860 5861 5861 5860
5794 5795 5797 5799 5801 5803 5805 5807 5810 5812 5814 5816 5819 5821 5823 5825 5828 5830 5832 5834 5837 5839 5841 5842 5844 5845 5847 5848 5849 5850 5851 5852 5853 5854 5854 5855 5855 5856 5856 5857 5857 5857 5857
5786 5788 5789 5791 5793 5795 5797 5799 5802 5804 5807 5809 5811 5814 5816 5818 5821 5823 5826 5828 5830 5832 5835 5837 5838 5840 5841 5843 5844 5846 5847 5848 5849 5849 5850 5850 5851 5852 5852 5853 5853 5853 5853
5779 5780 5781 5782 5784 5786 5789 5791 5794 5796 5799 5801 5804 5806 5809 5811 5814 5816 5819 5822 5824 5826 5828 5830 5832 5834 5836 5838 5839 5840 5841 5842 5844 5844 5845 5846 5846 5847 5847 5848 5848 5848 5849
5771 5772 5773 5774 5776 5778 5780 5782 5785 5787 5790 5793 5796 5798 5801 5804 5806 5809 5812 5815 5817 5819 5821 5824 5826 5828 5830 5832 5833 5835 5836 5837 5838 5839 5840 5841 5841 5842 5842 5843 5843 5844 5844
5763 5764 5764 5765 5766 5768 5771 5773 5776 5778 5781 5784 5787 5789 5792 5795 5798 5801 5804 5807 5810 5812 5814 5816 5819 5821 5823 5825 5827 5828 5830 5831 5832 5833 5834 5835 5836 5836 5837 5838 5838 5838 5838
5755 5755 5755 5756 5757 5759 5761 5764 5766 5769 5772 5774 5777 5780 5783 5786 5789 5793 5796 5799 5802 5804 5806 5808 5811 5814 5816 5818 5820 5822 5823 5824 5826 5827 5828 5828 5829 5830 5831 5832 5832 5833 5833
5746 5747 5747 5748 5748 5750 5752 5754 5757 5759 5761 5764 5767 5770 5773 5776 5779 5783 5787 5790 5793 5796 5798 5800 5802 5805 5808 5810 5812 5814 5816 5817 5819 5820 5821 5822 5823 5824 5824 5825 5826 5827 5827
5738 5739 5739 5739 5739 5741 5742 5744 5746 5749 5751 5754 5756 5759 5762 5765 5769 5773 5777 5781 5784 5787 5789 5792 5794 5796 5799 5802 5804 5806 5808 5810 5811 5812 5814 5815 5816 5817 5818 5818 5819 5820 5820
5730 5731 5731 5731 5731 5732 5733 5734 5736 5738 5740 5742 5745 5748 5752 5755 5758 5762 5767 5771 5774 5777 5780 5783 5786 5788 5790 5793 5795 5797 5799 5802 5803 5804 5806 5807 5808 5809 5810 5811 5812 5813 5813
5723 5723 5723 5723 5722 5722 5723 5724 5726 5728 5730 5732 5734 5737 5740 5743 5747 5751 5756 5760 5764 5767 5770 5773 5776 5778 5781 5783 5786 5788 5790 5792 5794 5796 5797 5799 5800 5801 5803 5804 5804 5805 5806
5716 5715 5715 5715 5715 5714 5714 5715 5716 5718 5719 5721 5723 5726 5729 5732 5735 5739 5744 5749 5752 5756 5760 5763 5766 5769 5771 5773 5776 5778 5781 5783 5785 5787 5788 5790 5792 5793 5794 5795 5796 5797 5797
5708 5708 5708 5707 5707 5706 5706 5706 5707 5708 5709 5711 5713 5715 5718 5721 5724 5728 5733 5738 5742 5745 5749 5752 5755 5758 5761 5763 5766 5768 5770 5773 5775 5777 5779 5781 5782 5784 5785 5786 5787 5788 5789
5701 5701 5700 5699 5699 5698 5697 5697 5697 5698 5699 5701 5703 5705 5708 5710 5714 5717 5722 5726 5730 5734 5738 5741 5745 5748 5751 5753 5755 5757 5759 5762 5765 5767 5769 5770 5772 5774 5775 5777 5778 5778 5779
5694 5693 5692 5692 5691 5690 5689 5689 5689 5689 5691 5692 5693 5695 5697 5700 5703 5706 5710 5714 5718 5722 5726 5730 5733 5736 5739 5741 5743 5746 5748 5750 5753 5756 5758 5760 5761 5763 5765 5767 5768 5769 5769
5688 5686 5685 5684 5683 5682 5681 5680 5680 5681 5681 5682 5684 5686 5687 5689 5692 5695 5699 5703 5706 5711 5715 5718 5721 5724 5726 5729 5732 5734 5736 5738 5740 5743 5747 5749 5751 5753 5754 5756 5757 5758 5758
5682 5680 5679 5678 5676 5675 5674 5673 5672 5672 5672 5673 5674 5675 5677 5678 5680 5683 5687 5691 5694 5699 5703 5706 5709 5711 5714 5717 5720 5722 5724 5726 5729 5731 5734 5737 5739 5741 5742 5744 5746 5746 5747